This is the latest recevied weather packets stored in our database for station/object KK7MLS-13. If no packets are shown the sender has not sent any weather packets the latest 10 day(s).
| Time | Temp. | Humidity | Pressure | Rain* | Wind** | Luminosity | Snow |
|---|---|---|---|---|---|---|---|
| 1777737550 | 11.67° C | 83% | 1016.5 hPa | 0 mm | - | 71 W/m² | - |
| 1777736037 | 11.67° C | 83% | 1016.4 hPa | 0 mm | - | 106 W/m² | - |
| 1777735734 | 11.67° C | 83% | 1016.3 hPa | 0 mm | - | 117 W/m² | - |
| 1777735432 | 11.67° C | 82% | 1016.4 hPa | 0 mm | - | 109 W/m² | - |
| 1777735129 | 11.67° C | 84% | 1016.4 hPa | 0 mm | - | 114 W/m² | - |
| 1777734825 | 11.67° C | 83% | 1016.3 hPa | 0 mm | - | 114 W/m² | - |
| 1777734523 | 11.11° C | 84% | 1016.4 hPa | 0 mm | - | 112 W/m² | - |
| 1777733916 | 11.11° C | 84% | 1016.4 hPa | 0 mm | - | 99 W/m² | - |
| 1777732702 | 10.56° C | 85% | 1016.6 hPa | 0 mm | - | 82 W/m² | - |
| 1777732399 | 10° C | 86% | 1016.6 hPa | 0 mm | - | 76 W/m² | - |
| 1777732097 | 10° C | 87% | 1016.4 hPa | 0 mm | - | 71 W/m² | - |
| 1777731794 | 10° C | 88% | 1016.5 hPa | 0 mm | - | 70 W/m² | - |
| 1777731490 | 10° C | 87% | 1016.5 hPa | 0 mm | - | 62 W/m² | - |
| 1777731189 | 10° C | 87% | 1016.5 hPa | 0 mm | - | 50 W/m² | - |
| 1777730886 | 10° C | 87% | 1016.6 hPa | 0 mm | - | 43 W/m² | - |
| 1777730584 | 10° C | 87% | 1016.6 hPa | 0 mm | - | 37 W/m² | - |
| 1777730280 | 10° C | 88% | 1016.6 hPa | 0 mm | - | 31 W/m² | - |
| 1777729066 | 10° C | 88% | 1016.6 hPa | 0 mm | - | 17 W/m² | - |
| 1777728763 | 10° C | 88% | 1016.8 hPa | 0 mm | - | 15 W/m² | - |
| 1777728459 | 10° C | 88% | 1016.5 hPa | 0 mm | - | 10 W/m² | - |
| 1777728157 | 10° C | 88% | 1016.7 hPa | 0 mm | - | 7 W/m² | - |
| 1777727853 | 10° C | 88% | 1016.3 hPa | 0 mm | - | 6 W/m² | - |
| 1777727551 | 10° C | 89% | 1016.4 hPa | 0 mm | - | 4 W/m² | - |
| 1777727248 | 10° C | 89% | 1016.3 hPa | 0 mm | - | 3 W/m² | - |
| 1777726036 | 10° C | 92% | 1016.3 hPa | 0 mm | - | 0 W/m² | - |
* Rain latest hour (hover to see other rain measurements)
** Current wind speed in m/s (hover to see current wind gust speed)